Weather in Zarqa Ma'in

Jordan     31°34′02″N   35°38′11″E
В апреле 2022 года жителям России запретили посещать сайт meteo.paraplan.net по решению Генеральной прокуратуры. Аудитория сайта уменьшилась в 10 раз. Владельцы сайта не видят смысла в поддержке погодного сервера в таких условиях. Сайт будет закрыт в октябре.
temp.,
°C
wind,
m/s
gust,
m/s
humid.,
%
clouds,
%
prec.,
mm/h
press.,
hPa
HPBL,
m
3 october, mon
mon300:00+23w22510 0.0 100911
03:00+21wsw22580 0.0 100811
06:00+20s11690 0.0 100811
09:00+24sw12460 0.0 1009361
12:00+30w33240 0.0 10081085
15:00+31w44170 0.0 10071170
18:00+28wnw22260 0.0 100723
21:00+25wnw22390 0.0 100812
4 october, tue
tue400:00+23wsw22700 0.0 100814
03:00+21wsw11790 0.0 100911
06:00+20wsw11880 0.0 100911
09:00+23w11670 0.0 1011355
12:00+28w43450 0.0 1011998
15:00+30wnw32330 0.0 10091081
18:00+28wnw33320 0.0 1010153
21:00+25wnw22480 0.0 101229
5 october, wed
wed500:00+23sw12630 0.0 101311
03:00+21sw11730 0.0 101311
06:00+20w11760 0.0 101411
09:00+24w22610 0.0 1015358
12:00+28wnw33440 0.0 1015824
15:00+30wnw44330 0.0 10131017
18:00+28wnw33400 0.0 1014226
21:00+25wnw22490 0.0 101516
6 october, thu
thu600:00+22sw11560 0.0 101511
03:00+21wsw22570 0.0 101511
06:00+19wsw11590 0.0 101511
09:00+23w11440 0.0 1016359
12:00+27wnw32360 0.0 1015837
15:00+29wnw44300 0.0 1013935
18:00+26wnw44380 0.0 1013296
21:00+22wnw33610 0.0 1014130
7 october, fri
fri700:00+20w22690 0.0 101525
03:00+19w22740 0.0 101434
06:00+17w22850 0.0 101427
09:00+20w34710 0.0 1015539
12:00+23w55530 0.0 1014933
15:00+25w45430 0.0 10121029
18:00+23wnw34480 0.0 1013454
21:00+19wnw23640 0.0 1014132